Voltar ao catálogo

STARLINK-37697

AtivoComunicaçõesVLEO
NORAD 100272·PAYLOAD·🇺🇸 United States

Lançado Aug 11, 2026 de Cape Canaveral Space Force Station

Loading…

Próximas Passagens (próximas 24 horas)

TLE

EnvelhecendoSource: Space-Track

Época: Sep 13, 2026, 06:07 UTC

1 A0272U 26183A   26256.25522812 -.00035978  00000-0 -24591-3 0  9997
2 A0272  53.1552 293.2556 0004130 319.8773  40.1941 15.73841780  5167

Acompanhe STARLINK-37697 em tempo real com AllMySat

Download on the App Store